{"data":{"norad_id":64866,"epoch":"2026-09-18T07:47:45.172896Z","epoch_age_seconds":202377,"freshness":"STALE","line1":"1 64866U 25153A   26261.32482839 -.00000028  00000+0  00000+0 0  9991","line2":"2 64866   0.0667 356.6257 0007359 192.3150 171.0483  5.00115421 24212","mean_motion":5.00115421,"eccentricity":0.0007359,"inclination_deg":0.0667,"raan_deg":356.6257,"arg_perigee_deg":192.315,"mean_anomaly_deg":171.0483,"bstar":0,"rev_number":2421,"period_min":287.93353284741,"perigee_km":8055.2623786252,"apogee_km":8076.5211001238,"semimajor_km":14444.028739374,"source":"CELESTRAK","updated_at":"2026-09-20T09:00:35.690909Z"}}